Regional Weather Roundup
Issued by NWS

Home | Current Version | Previous Version | Graphics & Text | Print | Product List | Glossary On
Versions: 1 2 3 4 5 6 7 8 9 10 11 12 13 14 15 16 17 18 19 20 21 22 23 24 25 26 27 28 29 30 31 32 33 34 35 36 37 38 39 40 41 42 43 44 45 46 47 48 49 50
000
ASUS45 KABQ 230501
RWRNM
WEATHER ROUNDUP FOR NEW MEXICO
NATIONAL WEATHER SERVICE ALBUQUERQUE NM
1100 PM MDT TUE JUL 22 2014

NOTE: "FAIR" MEANS FEW OR NO CLOUDS BELOW 12,000 FEET AGL WITH NO
       SIGNIFICANT WEATHER OR OBSTRUCTIONS TO VISION.

      THIS PRODUCT IS RELEASED AS TWO VERSIONS.  ONE VERSION NEAR
      THE TOP OF THE HOUR CONTAINING PRELIMINARY DATA FROM ALBUQUERQUE
      AND OTHER STATIONS.  A FINAL VERSION WITH ADDITIONAL DATA IS
      ISSUED ABOUT 10 MINUTES AFTER THE HOUR.

NMZ501-503-504-510>518-230600-
NORTHWEST PLATEAU/NORTHCENTRAL MOUNTAINS

CITY           SKY/WX    TMP DP  RH WIND       PRES   REMARKS
FARMINGTON     CLEAR     84  43  23 SE23G31   30.30R
LOS ALAMOS     PTCLDY    69  45  42 SW10      30.52R
SANTA FE       MOCLDY    68  50  52 CALM      30.44R
TAOS           PTCLDY    66  48  52 SW5       30.50R
ANGEL FIRE     FAIR      58  51  78 CALM      30.62R

$$
NMZ402-403-502-505>509-230600-
WESTCENTRAL MOUNTAINS/SOUTHWEST MOUNTAINS

CITY           SKY/WX    TMP DP  RH WIND       PRES   REMARKS
GALLUP         CLOUDY    74  47  38 S3        30.40R
GRANTS         PTCLDY    71  51  48 S14G20    30.45S

$$
NMZ407-409-411-412-230600-
SOUTHERN DESERTS

CITY           SKY/WX    TMP DP  RH WIND       PRES   REMARKS
LORDSBURG      MOCLDY    77  55  47 SE18G25   30.28R
DEMING         CLOUDY    71  66  84 SW3       30.27F
LAS CRUCES     CLOUDY    76  61  60 NW13G21   30.29R
HOLLOMAN AFB   MOCLDY    81  55  40 S5        30.22R
T OR C         CLOUDY    78  56  46 W12       30.30S

$$
NMZ519>523-230600-
CENTRAL VALLEYS/CENTRAL HIGHLANDS

CITY           SKY/WX    TMP DP  RH WIND       PRES   REMARKS
ALBUQUERQUE    CLOUDY    75  56  51 SE7       30.36R
DOUBLE EAGLE   CLOUDY    72  53  51 SE9       30.41R
MORIARTY ARPT  LGT RAIN  71  48  43 NE14G21   30.41F
CLINES CORNERS CLOUDY    66  49  54 S6        30.46F
BELEN          FAIR      78  49  35 E7        30.34F
SOCORRO        MOCLDY    78  47  33 N3        30.31R

$$
NMZ524>526-539-540-230600-
SOUTHCENTRAL MOUNTAINS

CITY           SKY/WX    TMP DP  RH WIND       PRES   REMARKS
RUIDOSO        NOT AVBL

$$
NMZ527>531-230600-
NORTHEAST HIGHLANDS/NORTHEAST PLAINS

CITY           SKY/WX    TMP DP  RH WIND       PRES   REMARKS
LAS VEGAS      MOCLDY    62  55  77 NE6       30.49R
RATON          CLEAR     71  56  58 SW5       30.42R
CLAYTON        CLEAR     73  60  63 S10       30.33R

$$
NMZ532>537-230600-
EASTCENTRAL PLAINS

CITY           SKY/WX    TMP DP  RH WIND       PRES   REMARKS
TUCUMCARI      MOCLDY    76  61  59 S6        30.24S
CANNON AFB     MOCLDY    74  63  69 E6        30.28S
CLOVIS AIRPORT NOT AVBL

$$
NMZ028-029-538-230600-
SOUTHEAST PLAINS

CITY           SKY/WX    TMP DP  RH WIND       PRES   REMARKS
ROSWELL        CLOUDY    85  57  38 CALM      30.22R
ARTESIA        CLOUDY    84  57  39 E3        30.20R
CARLSBAD       CLOUDY    88  53  30 E8        30.16R
HOBBS          MOCLDY    81  55  41 E8        30.23S


$$


USA.gov is the U.S. government's official web portal to all federal, state and local government web resources and services.